Wind_Speed
35 41 44 45 47 50 54 56 54 53 51 49 48 47 45 44 42 42 42 41 41 40 40 40 41 41 41 41 41 41 41 40 40 41 41 42 43 43 44 44 45 46 47 48 49 50 51 51 52 53 53 53 54 54 55 55 56 57 57 57 57 57 57 56 55 53 51 48 46 44 44 45 46 47 48 49 50 51 52 52 53 53 54 54 54 55 56 58
30 38 44 47 47 49 53 56 56 55 53 51 49 47 45 44 43 42 41 41 41 40 40 39 39 39 40 41 41 41 41 41 41 41 41 42 43 43 44 45 45 46 47 47 48 49 50 50 50 51 51 52 53 53 54 55 55 55 55 56 56 56 55 54 52 50 47 44 43 43 44 46 48 48 49 50 51 52 52 53 53 53 54 55 55 56 58 59
25 33 41 47 48 48 50 54 57 57 55 52 49 47 45 44 44 43 41 40 40 40 39 39 38 38 38 39 40 40 40 41 41 41 42 42 43 43 44 44 45 46 46 47 47 48 48 48 49 50 51 51 52 53 53 54 54 54 54 55 55 54 53 51 48 45 43 42 42 44 46 47 49 50 50 51 52 53 53 53 54 54 54 55 57 58 59 61
22 28 36 44 48 48 49 52 56 57 55 52 50 47 45 45 44 43 42 41 39 39 38 38 37 37 37 37 38 39 39 39 40 41 42 42 43 44 44 45 45 46 46 46 47 47 47 48 49 50 51 51 51 52 52 52 53 53 53 53 53 52 49 47 44 42 42 42 44 45 46 47 49 51 51 52 53 53 53 53 54 54 55 57 58 60 62 64
18 23 30 39 45 48 48 50 53 54 53 52 50 48 46 45 44 43 42 41 39 38 38 37 37 36 36 36 37 38 38 39 40 41 41 42 43 43 44 44 44 44 45 45 46 46 47 48 49 49 49 50 50 50 51 52 52 52 52 52 50 48 45 43 42 41 42 44 46 47 47 48 49 51 52 53 53 53 53 53 54 55 57 59 61 63 64 66
14 19 25 33 41 46 47 47 48 50 52 51 50 48 46 45 44 43 42 40 39 39 38 37 37 36 36 36 37 37 38 39 40 40 41 41 42 42 42 42 43 43 43 44 45 46 46 47 47 47 48 48 49 50 50 51 51 51 51 50 48 45 43 41 41 42 44 46 47 48 49 48 50 52 53 53 53 53 54 54 56 57 59 61 64 66 68 69
12 16 21 28 36 43 44 42 43 46 49 50 49 47 46 45 44 43 41 40 39 38 38 37 37 36 36 36 36 37 37 38 38 39 39 40 40 40 41 41 42 42 43 43 44 44 44 45 45 46 47 48 49 50 50 51 51 50 49 47 45 43 41 41 42 44 45 47 48 49 50 49 50 53 53 53 54 54 56 57 58 60 62 65 67 69 71 72
12 15 19 24 31 38 40 38 39 42 45 46 46 45 44 44 43 41 40 39 38 37 37 37 36 36 35 35 36 36 36 36 37 37 38 38 39 39 39 40 40 41 41 42 42 43 44 44 45 46 47 48 49 50 50 50 49 48 47 45 43 42 42 42 43 45 46 48 49 51 52 51 52 54 55 56 56 57 58 60 62 64 66 68 70 71 72 73
13 15 17 21 27 32 35 36 36 37 39 41 42 43 42 41 40 39 38 38 37 36 36 36 35 35 34 34 34 35 35 35 36 36 36 37 37 38 38 39 39 40 40 41 42 42 43 44 45 46 47 48 49 49 49 48 47 46 45 43 43 43 43 44 45 46 48 49 51 52 54 53 53 56 58 58 59 60 62 63 65 67 69 70 71 72 73 74
14 15 18 21 25 28 31 32 32 32 34 37 40 40 39 38 38 37 37 36 36 35 35 34 34 33 33 33 34 33 34 34 34 34 35 35 35 36 36 37 38 39 39 40 41 42 43 44 45 46 47 48 48 47 47 46 46 45 43 43 43 43 45 46 47 48 49 51 52 54 56 55 55 57 60 61 62 63 65 66 68 70 71 72 73 74 74 74
15 15 17 20 22 25 26 27 28 30 32 34 36 36 36 36 35 35 35 35 34 34 33 33 32 32 32 32 32 32 32 32 32 32 33 33 34 34 35 36 36 37 38 39 41 42 43 44 45 46 46 46 46 45 45 45 44 43 43 43 43 44 46 48 49 50 51 53 54 56 58 56 56 59 62 64 65 66 67 68 70 71 72 73 74 74 74 75
16 15 16 17 18 20 22 23 25 27 29 31 33 33 34 33 33 32 32 32 32 32 31 31 31 31 31 31 30 30 31 31 31 31 31 32 32 33 33 34 35 36 37 39 40 42 43 44 44 44 44 44 44 44 44 44 43 43 42 43 44 45 47 50 51 52 53 55 55 57 60 59 57 60 63 66 67 68 68 70 72 73 73 74 74 75 75 75
16 16 16 16 17 18 19 20 22 24 26 28 30 31 31 31 31 31 31 30 30 30 30 30 30 30 30 29 29 29 29 29 30 30 30 31 31 32 32 33 34 36 37 38 40 41 42 42 42 42 43 43 44 44 43 43 42 43 43 44 46 47 48 50 51 53 54 56 56 58 61 62 59 61 64 67 69 69 70 71 73 74 74 75 75 76 76 75
15 16 16 16 16 16 17 18 20 22 24 25 27 28 29 30 30 29 29 28 29 29 29 29 29 29 29 28 28 28 28 28 29 29 29 30 31 31 32 33 34 35 37 38 39 40 40 41 41 41 42 43 43 43 43 43 42 43 44 45 47 48 48 50 52 54 55 57 58 59 62 65 62 62 64 67 70 71 72 73 74 75 76 77 77 77 76 75
11 12 13 14 14 15 16 17 18 20 22 23 25 26 28 28 28 27 27 27 27 27 27 28 28 28 28 27 27 27 27 28 28 28 29 29 30 31 32 33 34 35 36 37 38 39 40 40 41 41 42 43 43 43 43 43 43 43 45 46 48 48 49 51 52 54 56 58 59 60 63 66 65 64 65 68 72 73 74 75 76 77 78 78 77 77 76 75
11 11 11 11 12 13 15 16 18 20 21 23 24 25 27 27 26 26 25 25 25 25 26 26 26 27 27 26 27 27 27 28 28 29 29 29 30 30 31 32 33 34 35 37 38 39 40 40 41 41 42 43 43 43 43 43 43 44 46 47 48 49 50 52 54 56 57 59 60 61 64 67 67 67 67 69 73 75 76 77 78 78 78 78 77 76 76 75
11 12 12 12 12 13 14 16 17 19 21 22 23 25 26 26 25 25 24 23 22 23 24 25 25 26 26 26 26 26 27 28 29 29 30 30 31 31 32 32 33 35 36 37 38 39 40 41 41 42 43 43 44 44 44 44 44 45 47 48 49 50 51 53 55 57 59 60 61 61 64 67 68 69 70 71 74 76 77 79 79 79 78 78 77 76 75 75
11 12 12 12 13 13 14 15 16 17 19 20 21 22 23 24 23 23 23 23 23 24 24 25 25 26 26 26 26 27 28 29 30 30 31 31 32 33 33 34 35 36 37 38 39 40 41 41 42 43 44 44 44 44 44 45 45 46 47 48 50 52 53 54 56 57 59 61 62 63 65 68 70 71 72 73 76 77 79 79 79 78 78 77 76 75 76 75
9 11 12 12 12 13 15 16 15 15 16 17 19 21 21 23 22 22 23 24 25 25 25 26 26 27 27 28 28 29 29 30 30 31 31 32 33 34 35 35 36 37 37 38 39 40 41 42 43 43 44 45 45 45 45 45 46 47 48 49 50 53 55 56 57 58 59 61 64 65 67 69 71 72 74 75 78 79 79 79 78 78 76 76 75 75 75 73
3 7 10 12 12 13 15 16 16 17 17 19 21 23 24 24 23 22 23 24 25 25 26 26 27 28 28 29 29 30 30 31 31 32 32 33 34 35 36 36 36 37 38 39 40 41 42 43 43 44 45 46 46 46 46 46 47 48 49 51 52 53 56 58 58 59 60 62 65 68 70 72 72 73 75 77 79 80 79 78 77 76 75 75 74 73 72 69
7 5 6 9 11 14 16 17 18 19 21 22 24 24 24 24 24 24 24 24 24 25 26 26 27 28 28 28 29 30 30 31 31 32 33 34 35 36 36 37 37 38 39 40 41 41 42 43 44 45 46 47 47 47 48 48 48 49 50 52 53 54 57 59 60 62 62 63 66 69 73 75 74 74 77 78 79 79 78 77 76 75 74 73 72 70 66 59
9 10 10 10 10 12 15 18 19 21 22 23 24 24 25 25 25 25 25 24 24 25 25 26 26 27 28 29 29 30 30 31 32 33 34 35 36 36 37 38 39 39 41 42 42 42 44 45 46 46 47 48 48 48 49 49 49 50 51 53 55 56 57 60 62 64 65 65 66 69 72 76 77 77 78 79 78 78 77 76 74 73 73 71 67 62 54 47
10 12 13 14 15 15 16 17 19 21 22 23 25 25 26 26 27 27 27 27 26 27 27 26 26 27 28 29 29 30 30 31 32 33 35 36 37 38 39 40 41 41 43 43 43 44 45 47 47 47 48 49 49 50 50 51 51 51 52 54 55 57 58 60 63 66 69 69 68 68 70 76 79 78 78 78 77 77 76 74 73 71 69 65 58 49 43 42
13 14 15 17 18 19 19 20 20 21 22 23 25 26 27 28 28 29 30 30 29 29 29 28 28 29 30 29 28 28 28 30 31 33 35 36 38 40 41 42 43 44 45 45 45 46 47 49 49 49 49 50 50 51 51 52 53 53 54 55 56 59 60 62 64 66 70 71 71 70 70 74 80 78 76 76 75 74 74 72 71 67 61 55 47 42 42 44
15 16 18 20 21 22 23 23 23 23 24 24 25 27 29 30 30 32 32 32 31 30 31 30 29 30 30 30 29 29 29 31 32 34 36 38 39 41 42 44 45 45 46 46 46 47 49 50 50 50 51 51 52 52 52 52 54 55 56 57 58 60 62 64 66 67 69 71 73 73 71 73 78 78 74 74 72 71 71 70 66 58 50 45 42 42 45 47
18 19 21 23 24 25 26 26 26 26 26 26 27 29 31 32 32 33 34 35 34 33 32 30 29 30 31 32 32 31 33 34 35 37 38 40 41 42 44 45 46 46 46 46 46 48 50 50 51 51 52 53 53 53 53 53 54 56 57 59 60 62 64 65 67 68 69 71 73 75 74 73 75 77 73 71 71 69 68 64 55 47 43 42 42 45 48 50
20 22 24 25 26 28 29 29 28 28 28 27 28 31 32 31 32 34 37 38 37 36 34 31 30 31 32 33 33 33 35 37 38 39 40 41 43 44 46 46 46 47 46 46 47 49 50 51 51 52 53 54 54 54 54 54 55 56 58 60 62 63 65 66 67 68 70 72 74 76 76 74 74 75 70 69 69 65 61 55 46 42 43 43 45 47 50 52
23 24 26 27 28 29 31 31 31 30 30 29 30 31 30 30 33 37 38 38 38 37 34 31 31 32 33 34 34 35 37 39 39 41 42 43 45 46 47 47 47 47 46 46 48 50 50 51 52 53 54 54 55 55 55 56 57 58 60 61 63 64 65 66 67 69 70 72 74 76 76 74 73 73 68 66 63 56 52 48 44 43 45 46 48 49 51 52
25 25 26 27 28 30 32 33 33 32 31 30 30 30 30 31 34 36 36 36 36 34 32 31 32 33 34 34 36 37 39 39 40 41 43 45 46 47 47 48 48 47 47 48 49 50 51 52 53 54 55 55 56 56 57 58 59 60 61 63 64 65 65 66 67 68 69 71 73 74 75 73 72 70 66 59 51 46 46 46 45 47 48 48 50 51 51 52
26 25 25 26 27 28 30 32 33 33 32 31 30 29 29 30 30 30 30 32 32 31 31 33 34 34 34 35 37 39 40 41 42 43 45 47 48 48 48 48 48 48 49 50 50 51 52 53 54 55 56 56 57 58 58 59 61 62 63 64 65 65 65 66 67 68 68 69 70 71 72 72 71 67 58 47 41 41 45 47 48 49 50 51 51 52 52 52
27 24 23 23 24 25 26 28 30 31 31 30 29 29 30 30 29 28 29 29 29 30 31 33 34 34 35 37 40 41 41 43 44 45 47 48 48 49 48 48 48 49 49 50 51 52 53 54 56 57 57 58 59 59 60 61 62 64 64 65 65 65 65 65 65 66 65 65 66 67 69 70 70 62 47 39 40 43 46 48 49 50 52 53 53 52 52 52
28 24 21 21 22 23 23 25 26 28 29 28 29 30 29 29 29 28 28 27 28 30 30 31 33 35 37 39 41 42 43 44 46 47 48 48 48 49 48 49 50 49 49 50 51 52 53 56 57 58 59 60 60 61 61 62 63 65 66 66 66 65 63 62 63 63 61 60 60 63 66 66 64 54 41 39 44 45 47 50 50 51 52 53 53 53 53 54
29 25 21 20 20 21 22 22 24 25 26 26 27 27 27 28 28 27 28 29 31 31 31 31 33 36 38 41 42 44 44 46 48 48 48 48 48 48 49 50 51 50 50 50 51 52 53 56 58 60 60 61 62 62 63 63 64 65 66 67 67 67 64 61 59 57 55 55 56 60 62 58 55 48 41 43 48 48 49 52 52 52 52 52 54 54 55 56
29 25 21 19 19 20 21 21 22 22 23 24 25 26 27 28 28 28 29 30 30 31 31 31 34 37 40 42 44 45 46 46 47 47 47 47 46 47 50 51 51 51 52 52 52 52 53 55 58 60 61 62 63 63 64 65 65 65 66 67 67 68 66 62 58 54 51 50 51 54 54 52 51 47 43 47 51 50 50 52 54 54 53 53 55 56 57 58
28 25 22 19 18 19 20 21 21 21 22 23 25 27 28 29 30 30 29 28 27 29 31 33 36 39 41 43 44 45 44 43 44 45 45 45 46 48 50 50 51 52 53 53 53 53 53 55 58 60 61 63 63 64 65 66 65 65 65 66 66 66 65 61 56 52 50 47 43 44 49 52 51 47 44 49 53 52 51 52 55 57 55 55 57 58 61 62
27 25 22 20 19 19 19 20 20 21 23 24 25 27 29 31 33 32 29 27 27 29 32 35 37 38 41 42 43 43 43 41 42 42 43 45 46 48 49 50 52 53 54 55 55 55 55 55 57 60 62 63 64 64 66 67 66 65 65 65 65 63 61 58 52 49 47 41 36 39 47 53 52 49 47 50 53 53 52 54 57 59 59 59 60 63 65 67
26 23 22 20 19 19 19 19 20 22 23 25 26 28 29 32 35 33 31 29 30 31 34 36 37 37 39 40 41 42 42 41 41 41 43 45 47 48 50 52 53 54 55 56 56 57 56 56 57 61 62 64 65 64 66 67 66 65 65 65 63 59 57 53 47 43 40 36 35 38 48 55 53 49 49 51 54 53 53 56 60 62 63 63 65 67 69 71
24 22 21 20 19 19 19 19 20 21 23 25 26 27 28 31 33 33 33 33 34 35 35 36 36 37 38 39 41 42 41 41 42 43 44 45 48 50 51 53 55 56 57 57 57 58 58 56 57 60 63 64 64 64 65 66 65 65 64 63 61 57 52 46 41 40 38 36 36 37 46 58 55 49 50 52 54 54 55 59 62 65 67 67 67 70 72 74
22 21 20 19 19 19 19 19 20 21 22 23 24 26 28 30 32 33 33 35 36 36 35 35 35 36 39 41 41 41 41 42 44 44 45 47 49 52 53 55 57 57 58 58 59 59 59 57 56 58 62 62 63 64 64 64 63 63 62 60 58 53 45 38 38 41 40 39 39 37 44 60 59 52 52 53 54 55 56 59 63 66 69 69 70 72 74 76
21 20 20 20 20 20 20 19 20 21 22 23 25 28 30 31 32 32 33 34 35 35 35 36 36 37 39 40 40 40 41 43 45 46 48 50 52 54 56 57 58 58 58 59 60 59 59 57 55 57 60 61 62 62 63 62 61 60 58 57 53 45 38 35 38 44 44 43 43 38 42 59 62 55 55 56 56 58 59 60 64 68 70 71 73 76 77 79
20 20 20 20 21 20 20 19 20 22 23 25 26 28 29 29 29 29 31 32 33 34 34 36 38 38 38 38 40 41 42 44 46 48 50 52 54 56 58 59 59 59 59 59 60 59 58 56 55 56 58 59 60 62 62 60 58 57 55 51 46 39 36 37 40 44 46 46 46 41 42 57 63 59 59 61 61 62 64 65 66 70 73 74 76 79 81 82
19 19 20 21 21 21 20 21 22 24 24 25 25 26 27 27 26 27 29 31 32 33 35 36 37 37 38 39 42 43 44 45 47 50 52 54 57 58 59 60 60 59 59 58 59 59 57 56 54 54 55 57 59 60 59 57 56 54 51 45 41 39 39 41 42 44 46 47 48 44 42 53 62 62 62 64 65 66 68 70 71 72 75 77 79 81 83 85
17 18 19 20 21 21 21 22 23 23 24 25 25 26 27 27 28 28 30 31 32 35 36 37 37 38 40 42 43 45 46 46 48 52 54 56 58 60 60 60 60 59 58 57 57 57 56 55 53 52 52 54 57 58 57 55 54 50 45 42 41 41 42 44 45 46 47 49 51 49 45 51 60 64 65 67 68 70 72 74 76 77 78 80 82 85 86 88
16 17 19 20 21 21 22 22 22 22 23 24 25 26 27 28 30 31 33 34 36 37 37 38 39 40 42 44 45 47 48 49 50 53 56 58 59 60 60 59 59 58 57 56 55 55 54 54 53 50 47 47 50 54 53 52 49 45 43 43 43 44 44 46 47 47 48 50 54 55 51 52 60 66 67 69 71 73 75 78 81 82 83 83 85 87 89 90
16 17 18 20 21 22 22 22 21 22 23 24 25 27 28 31 33 35 37 37 37 37 37 39 41 42 44 45 47 49 50 51 53 55 58 59 59 59 58 58 57 56 55 54 53 53 52 53 53 50 46 45 45 44 42 41 42 42 43 44 45 46 48 48 49 51 52 52 56 61 58 55 62 68 69 71 73 75 77 79 82 85 87 87 88 90 92 93
15 17 18 19 20 21 21 22 22 23 24 26 27 28 30 33 36 38 38 37 37 37 38 40 42 43 45 47 48 50 52 54 55 57 58 58 58 57 56 55 55 54 53 53 52 51 49 49 49 48 47 47 43 38 35 36 39 42 43 45 46 48 50 52 53 55 56 55 57 64 65 61 63 68 71 73 75 76 78 80 83 86 88 90 91 92 94 96
16 17 18 19 20 21 22 23 24 24 25 27 28 29 31 33 35 36 36 36 37 39 40 42 43 45 47 48 49 52 53 55 57 57 57 57 55 54 53 53 53 52 52 51 50 48 45 45 45 45 45 45 40 37 37 38 40 42 44 46 49 51 53 56 58 59 60 60 60 64 69 69 68 70 73 76 78 79 81 83 85 88 90 91 93 94 96 98
17 18 18 19 20 21 22 23 24 25 26 28 29 30 31 31 33 34 36 37 38 40 41 44 46 47 48 49 51 53 54 56 57 56 55 55 53 52 52 52 52 51 50 48 47 44 41 40 40 39 41 43 40 39 41 42 43 45 46 48 51 54 56 59 62 64 65 66 65 67 71 74 75 75 77 80 83 84 85 87 89 91 93 94 95 97 99 101
17 18 18 19 20 20 21 22 23 24 26 27 28 29 29 31 32 34 36 38 40 42 44 46 47 49 50 51 52 53 54 54 54 54 53 52 52 51 51 51 50 49 47 45 44 41 37 35 35 34 38 43 43 42 44 46 47 49 50 52 55 58 61 63 67 69 70 71 73 73 74 78 81 82 82 84 87 89 89 91 92 94 96 98 100 102 103 105
17 17 18 18 19 19 20 21 22 23 24 26 27 29 30 32 34 36 38 40 42 44 46 47 49 50 51 52 53 53 52 51 51 51 51 51 51 50 49 48 47 45 44 42 39 35 32 31 33 34 38 44 45 46 48 49 50 52 54 57 59 61 64 67 70 74 75 75 77 79 79 81 83 85 86 87 90 92 94 95 96 98 100 102 104 106 107 109
16 16 17 17 18 18 19 20 21 23 25 27 29 31 33 35 37 39 41 42 44 45 47 49 50 51 51 51 51 51 50 50 49 49 49 49 49 48 46 45 44 42 40 36 32 31 30 31 33 35 38 44 47 48 51 53 53 55 57 60 63 65 67 70 74 78 79 79 80 82 84 84 85 86 87 87 90 94 98 100 102 103 104 106 108 110 112 114
14 14 15 16 17 19 20 21 23 25 27 29 31 33 35 37 39 41 42 44 45 46 48 49 50 50 50 50 49 49 49 49 49 48 48 46 45 44 43 43 41 37 32 29 29 30 31 33 35 36 39 44 48 50 53 55 56 57 60 63 66 68 70 73 77 82 84 84 85 86 87 88 89 90 90 89 90 93 98 103 105 107 109 110 112 114 117 119
Wind_Direction
217 213 212 212 211 209 209 209 210 212 213 215 216 218 219 221 223 224 224 225 227 228 229 231 232 234 237 239 241 243 245 247 249 252 254 256 259 261 263 266 268 270 273 275 277 279 281 283 285 287 288 290 291 293 294 295 296 297 297 297 298 299 300 301 301 301 300 300 299 300 300 301 300 300 302 304 305 306 307 307 307 307 306 305 304 303 303 302
217 214 212 212 212 210 209 209 210 211 212 214 216 217 219 222 224 225 226 227 228 229 231 233 235 237 239 242 244 247 249 251 254 256 258 260 262 265 267 269 271 274 275 278 280 282 284 286 288 290 291 292 293 295 296 296 297 297 297 298 299 300 301 302 302 301 300 300 301 302 302 302 302 304 305 307 308 308 309 308 308 307 306 305 304 304 303 302
217 213 211 211 211 210 209 208 210 211 212 213 215 217 219 222 224 226 228 229 230 231 233 235 238 240 243 245 248 251 253 255 258 260 262 264 266 268 270 272 274 277 279 281 283 285 287 288 290 291 292 294 295 295 296 296 297 297 298 300 301 302 302 302 302 301 302 302 303 303 303 304 306 308 308 309 309 309 309 309 308 307 306 305 305 304 303 302
215 212 210 210 210 210 209 209 210 211 211 213 215 217 219 222 225 227 228 230 232 234 235 237 240 242 245 248 251 253 256 258 261 263 265 267 269 271 273 275 277 280 282 283 285 287 288 289 290 291 293 294 295 295 296 296 298 299 300 302 302 303 303 302 302 303 303 303 303 303 304 307 308 309 309 310 310 310 310 309 308 307 306 306 305 304 303 303
207 207 208 207 208 209 208 209 210 210 211 213 215 216 219 222 225 227 229 231 233 236 238 240 242 244 247 250 253 256 258 261 263 265 268 270 272 275 277 278 280 282 283 285 286 287 288 289 291 292 293 294 295 296 297 299 300 302 302 302 302 303 303 302 302 303 303 303 303 305 307 308 309 309 310 311 311 311 310 309 308 307 307 306 305 304 304 303
194 196 200 202 205 206 207 209 209 209 210 212 214 217 219 223 226 228 231 233 235 238 240 243 245 248 251 253 256 259 261 264 266 268 270 273 275 277 278 280 281 283 284 285 286 287 289 290 291 292 293 294 296 298 300 301 302 302 302 302 302 302 302 302 302 302 303 304 306 307 308 308 309 310 311 312 311 310 310 309 309 308 307 306 305 305 304 304
175 181 188 193 198 202 206 207 208 209 210 212 214 217 220 224 227 230 232 235 237 239 242 245 248 250 253 256 259 262 264 267 268 270 272 273 275 277 278 280 281 283 284 286 287 288 289 291 292 293 295 297 299 301 301 302 302 302 302 302 302 301 301 301 302 302 304 306 308 308 308 308 311 311 311 311 310 310 310 310 309 308 307 306 306 306 306 306
149 161 173 182 190 196 201 203 206 209 211 212 214 217 221 224 228 231 233 236 239 241 244 247 249 252 255 259 261 264 266 268 269 271 273 274 276 277 278 280 281 283 285 286 287 289 290 292 294 296 298 300 300 301 301 302 302 302 302 301 301 301 300 300 302 304 306 308 308 308 308 310 312 312 311 311 311 311 310 310 309 308 308 307 307 307 307 307
128 142 157 169 179 187 193 199 204 208 211 212 214 217 221 225 228 231 234 237 240 243 245 248 251 254 257 259 261 264 266 268 270 271 273 274 276 278 279 281 282 284 285 287 289 290 292 295 297 298 299 300 301 301 302 302 302 302 302 301 301 300 300 302 304 306 307 308 308 309 310 312 313 312 311 311 311 311 310 310 310 309 309 309 309 308 309 309
123 135 147 158 170 178 186 195 202 207 209 211 214 218 221 225 228 232 235 238 241 244 247 250 252 255 257 259 261 263 266 267 270 271 273 275 277 279 281 282 284 286 288 289 291 293 295 297 298 299 300 301 302 302 303 303 302 302 301 301 301 301 303 305 306 307 308 309 310 310 311 312 313 312 312 311 311 311 311 311 311 310 310 310 310 310 311 312
127 136 146 155 166 175 183 192 199 204 207 211 215 218 222 225 229 232 236 239 242 245 248 250 252 254 256 258 261 263 266 268 270 272 274 276 278 280 282 285 287 289 291 292 294 295 297 298 299 300 301 303 303 304 303 303 302 301 301 301 302 304 306 307 308 309 309 310 311 312 311 312 313 312 311 311 311 311 312 312 312 311 311 311 311 312 312 313
137 140 149 158 168 178 185 192 199 205 208 212 216 219 223 227 230 234 237 240 243 245 248 250 253 255 257 259 262 264 266 269 270 272 274 277 279 281 283 286 288 290 292 294 296 297 298 300 301 303 304 304 305 305 304 303 302 301 301 302 303 306 307 308 309 310 311 312 313 312 311 311 312 311 311 311 311 312 312 313 313 312 312 312 313 313 314 314
146 150 159 167 173 182 188 193 200 206 210 214 218 222 226 229 232 235 238 241 244 247 250 252 254 256 259 260 262 264 266 268 271 273 275 277 279 281 283 286 288 290 292 294 297 299 301 302 303 304 305 305 305 305 304 303 302 301 302 304 305 306 307 307 309 311 312 312 312 312 310 309 310 311 311 311 311 312 313 314 313 312 313 313 315 315 314 314
149 156 167 177 183 187 192 198 202 208 212 216 220 224 228 230 233 236 239 243 246 249 251 253 255 256 258 259 261 263 266 268 271 273 275 277 280 282 284 287 289 291 293 296 299 301 303 304 304 305 306 306 306 305 304 303 302 303 303 304 304 305 306 308 310 311 311 311 311 311 309 308 310 311 311 312 312 313 314 314 313 313 314 315 316 315 315 314
153 161 168 178 187 191 196 203 208 212 216 220 223 225 228 231 233 236 240 243 246 249 251 252 254 255 257 259 261 263 265 268 270 272 274 277 280 283 285 288 290 292 295 299 302 304 305 305 305 306 307 307 306 305 304 303 302 302 302 303 304 305 307 308 309 310 310 309 309 309 309 308 310 311 311 312 312 313 314 314 314 315 316 316 316 315 315 314
170 185 189 184 186 192 198 205 211 216 219 222 224 225 228 231 234 237 240 243 246 248 250 251 253 255 257 259 261 263 265 267 268 271 273 276 279 282 285 288 291 294 297 300 302 304 305 306 306 307 307 307 306 305 304 303 302 302 302 304 305 306 307 308 308 308 308 308 308 309 309 309 310 311 312 313 313 314 314 314 315 316 316 316 316 315 315 314
180 198 207 200 197 198 201 206 211 215 218 221 224 227 231 234 236 238 239 241 243 245 247 249 252 254 257 258 260 263 265 267 269 272 275 278 280 283 285 288 291 294 297 300 302 305 306 307 307 307 308 308 307 305 304 303 302 303 304 305 305 305 306 307 307 307 308 308 309 310 309 310 311 312 313 314 314 314 315 315 316 316 317 316 316 315 315 315
189 202 210 208 208 210 210 210 212 214 216 219 224 228 232 234 235 236 237 235 236 240 245 249 251 254 256 259 261 264 267 269 272 275 277 280 283 285 287 290 293 295 298 301 303 306 307 308 307 308 308 308 307 305 303 302 302 302 303 303 304 305 305 306 307 308 309 309 310 311 311 311 312 313 314 314 314 315 315 315 316 317 316 316 316 315 315 315
190 200 209 213 215 219 218 214 213 216 218 217 220 223 227 231 233 236 238 239 241 245 248 251 254 257 259 262 264 267 269 272 274 276 279 282 284 287 289 292 294 297 299 301 303 306 308 308 308 308 308 307 306 304 302 301 301 301 302 303 304 305 306 307 308 309 310 311 312 312 312 312 313 314 315 315 315 314 315 316 316 316 316 316 316 316 316 316
220 200 205 211 218 225 228 223 218 218 218 218 219 221 225 230 232 235 240 244 248 251 252 255 258 261 263 265 267 269 271 273 276 278 281 284 286 288 290 292 294 297 298 300 302 305 308 308 307 307 307 306 305 303 302 301 301 302 303 304 305 307 308 309 311 311 312 313 313 314 313 313 314 315 315 314 314 314 315 316 316 316 316 316 316 316 317 318
297 276 238 224 223 227 233 235 231 225 222 223 226 228 229 232 234 236 239 244 248 251 253 256 260 263 266 268 270 272 274 276 279 282 284 286 288 289 290 292 295 297 298 300 301 304 307 308 307 307 307 306 305 304 303 302 302 303 304 305 307 308 310 311 312 312 313 314 314 315 314 314 315 315 314 314 314 315 315 316 316 316 316 316 317 317 319 321
285 287 282 271 256 245 242 244 243 237 232 231 232 233 233 234 236 238 239 240 245 250 252 255 260 265 269 272 275 277 279 281 283 284 285 287 289 290 291 294 296 298 300 301 301 303 306 307 307 307 307 307 307 305 304 303 303 304 305 306 308 309 311 312 313 313 313 314 314 315 315 314 314 315 314 314 315 315 315 316 316 316 316 317 318 320 322 325
269 270 272 273 272 268 261 258 255 251 246 241 237 235 234 234 236 238 239 239 243 248 251 254 260 266 272 277 279 280 282 283 284 285 287 289 290 291 293 295 296 299 301 302 301 304 307 308 308 308 308 308 307 306 305 304 304 305 306 307 308 309 311 312 313 313 313 314 315 315 315 314 313 313 314 314 315 315 315 316 316 317 318 319 320 323 326 328
271 265 262 261 263 265 265 264 263 260 257 251 243 238 237 235 235 238 242 243 246 252 255 257 261 267 274 278 280 280 282 284 285 287 289 290 291 293 294 295 297 299 302 302 302 305 307 308 309 309 308 308 307 306 305 305 306 307 307 308 309 310 311 312 313 313 314 314 315 315 315 313 312 313 313 314 315 315 316 316 317 319 320 321 323 325 328 329
276 270 264 259 256 256 258 260 261 261 260 257 250 243 240 239 238 240 243 246 251 257 261 263 265 269 274 277 277 279 283 285 288 289 291 292 293 295 296 296 297 299 302 302 303 306 308 308 308 308 308 308 308 307 306 306 307 308 309 310 311 311 312 313 314 314 314 314 314 314 314 313 311 312 313 314 315 316 317 316 318 322 323 322 324 326 328 328
278 274 268 263 257 253 253 254 257 258 258 258 254 249 245 243 242 243 245 247 249 254 259 264 268 271 274 275 276 279 284 287 289 291 292 293 295 296 297 298 299 301 302 302 304 306 307 308 308 308 308 308 308 307 306 307 308 309 310 310 312 312 313 314 314 315 315 314 314 313 313 313 312 311 314 316 317 318 317 316 321 325 323 323 324 326 327 326
282 277 272 266 260 255 253 252 253 254 256 256 253 251 249 246 245 246 245 246 248 252 258 263 266 271 274 275 277 281 286 289 291 292 292 294 295 297 298 299 300 301 301 302 305 306 307 307 308 308 308 308 308 307 307 308 309 309 310 311 312 313 313 315 315 315 315 314 314 313 313 314 312 312 315 317 318 319 316 318 325 325 322 323 324 324 325 324
285 281 275 269 262 257 254 252 251 252 253 254 252 250 250 245 243 245 247 249 251 254 260 263 265 271 274 276 281 285 288 290 290 291 292 294 296 298 299 299 300 301 301 303 305 306 307 307 308 308 308 308 308 308 308 309 310 310 311 311 312 313 314 315 315 315 314 314 314 314 313 314 313 312 316 320 320 318 316 320 325 323 322 324 323 323 323 323
286 283 277 270 264 258 255 253 251 251 252 253 251 249 249 246 245 248 251 254 256 258 261 262 266 271 274 279 285 287 288 288 289 290 293 295 296 297 298 298 300 300 301 304 306 307 308 308 309 309 309 309 308 309 309 310 310 311 311 312 313 314 315 315 314 314 314 315 314 314 314 313 311 312 318 322 320 316 316 320 322 322 323 324 323 323 322 323
288 285 277 270 265 261 256 253 251 250 250 251 250 246 246 249 251 252 254 257 259 261 261 264 268 271 275 282 286 286 286 287 288 291 294 296 296 297 297 298 299 301 303 306 307 309 309 309 309 309 309 309 309 310 310 310 311 311 312 313 313 314 314 314 314 314 315 315 315 314 313 311 310 314 322 323 317 315 318 320 321 322 323 323 323 323 323 323
289 285 276 268 265 261 256 252 249 249 249 249 246 241 241 246 251 253 256 259 263 263 263 265 267 271 277 282 283 283 285 287 289 292 295 296 297 297 297 298 300 302 306 308 309 310 310 310 310 310 310 309 309 310 310 311 311 312 312 312 312 313 313 314 314 315 316 316 315 314 311 309 309 316 326 322 314 317 319 320 321 322 322 323 324 324 324 324
291 286 276 266 261 258 254 250 247 246 246 245 241 239 240 245 249 254 259 264 265 266 266 266 267 272 278 280 280 282 284 287 290 293 294 296 297 297 298 299 301 304 307 308 309 310 310 310 310 310 310 309 310 310 310 311 311 312 312 312 312 311 312 314 314 316 317 317 315 311 308 307 309 318 328 320 315 319 320 320 321 321 322 323 323 324 324 323
291 286 278 267 259 255 251 248 245 243 242 241 241 241 241 243 247 252 259 264 266 267 268 267 269 273 276 277 279 282 285 289 291 293 295 297 298 298 299 300 303 305 307 308 309 310 310 310 309 310 309 309 309 310 310 311 311 312 312 311 311 312 313 315 316 318 318 316 313 307 306 306 309 320 328 318 316 321 321 320 320 320 322 323 323 324 324 323
289 285 279 268 259 253 248 246 243 241 239 240 241 240 239 241 246 252 259 264 268 269 269 269 270 272 274 276 280 284 288 292 293 295 296 298 298 299 300 302 305 307 308 308 309 310 310 310 309 309 309 309 309 310 310 310 311 311 311 311 312 312 314 317 320 321 318 314 311 308 307 305 310 322 326 318 319 322 321 320 319 319 322 323 323 323 323 324
286 283 277 268 259 252 247 244 242 240 239 238 239 240 240 243 247 252 259 265 267 268 268 267 268 271 274 279 283 287 291 294 295 297 298 298 299 300 301 304 307 308 308 309 309 309 310 309 309 308 308 308 309 309 310 310 310 310 311 311 311 313 315 319 323 321 316 315 313 311 307 305 312 324 325 320 321 322 321 319 318 319 321 322 323 324 324 325
282 279 274 267 259 252 248 245 242 240 239 238 238 239 240 243 246 250 255 259 260 261 263 265 269 273 279 284 289 292 295 296 297 297 298 299 300 301 304 306 308 308 308 309 309 309 309 309 309 308 307 308 309 310 310 310 310 310 311 311 312 315 317 320 323 318 314 317 318 314 307 305 314 324 323 321 321 321 321 318 316 317 320 323 324 324 325 325
277 274 270 264 257 251 248 244 242 241 240 239 238 240 242 245 248 252 254 254 256 259 263 268 273 280 285 289 293 296 298 298 297 297 298 300 302 304 306 307 308 308 308 308 308 308 309 310 310 309 308 309 309 310 310 309 310 311 311 311 313 317 319 321 320 314 315 319 319 317 308 304 315 324 321 320 320 321 321 318 317 317 319 323 324 324 325 325
272 268 265 261 255 251 247 242 241 242 243 242 240 241 243 247 251 254 255 256 259 263 267 273 279 285 288 290 294 297 298 298 297 297 299 301 303 305 306 307 307 307 307 307 308 308 309 310 311 310 309 309 309 310 309 309 310 311 311 313 316 319 321 322 317 312 318 320 319 320 309 304 314 323 320 319 320 322 321 318 317 318 319 322 323 324 324 324
269 265 262 258 254 251 247 243 241 241 242 244 244 242 243 246 251 254 256 259 262 267 273 278 283 287 289 291 294 296 297 297 297 299 301 303 304 305 306 307 307 307 307 307 308 309 309 311 311 310 308 308 309 309 308 308 309 311 312 315 316 320 323 322 315 314 320 321 320 324 312 305 314 322 319 318 320 320 320 318 317 317 318 321 322 323 323 323
268 264 260 256 252 250 248 245 242 240 240 242 243 245 247 251 254 258 260 264 269 274 278 282 285 287 289 292 294 295 296 297 298 300 302 303 303 304 306 307 307 308 308 308 308 309 309 310 311 309 308 308 309 308 307 308 310 312 314 315 317 322 323 320 316 316 320 321 321 327 317 307 313 320 318 318 320 320 319 318 318 317 318 320 322 322 322 322
267 263 258 255 252 251 249 247 243 243 244 244 244 248 252 257 261 265 267 271 276 278 280 283 286 288 290 292 293 293 295 297 299 301 302 303 303 305 306 307 307 307 308 308 308 308 308 309 310 309 308 309 308 307 307 309 311 313 314 316 319 323 322 318 317 318 320 320 321 327 321 310 312 317 317 319 321 320 319 319 319 318 318 320 321 321 321 321
266 262 258 255 253 251 250 247 246 247 250 251 252 256 260 264 268 270 272 275 277 280 283 287 289 291 291 291 292 293 295 298 300 301 302 302 304 305 306 307 307 307 307 308 307 307 308 309 310 309 309 309 308 307 308 310 312 314 315 318 322 324 321 318 318 319 321 320 320 324 322 313 312 314 316 319 321 319 319 320 319 318 318 319 320 320 320 319
264 259 255 254 253 252 251 251 250 252 254 257 260 263 266 269 272 274 276 278 281 285 289 290 290 289 289 290 292 295 297 299 300 301 301 303 304 306 306 307 307 307 307 307 307 308 309 309 309 309 309 309 309 308 310 312 313 314 315 320 323 322 320 318 318 320 321 321 319 321 323 317 312 313 317 320 320 320 320 319 319 318 318 318 319 319 318 318
260 255 252 251 251 252 254 256 258 258 259 261 264 267 270 274 277 279 282 285 288 289 289 287 287 287 289 291 294 297 298 299 300 301 302 303 305 306 306 306 306 306 306 307 308 308 309 309 308 309 309 309 307 307 310 312 314 314 316 320 322 320 319 318 318 319 321 322 319 319 324 322 314 314 319 320 320 320 320 319 318 317 316 317 318 318 317 317
258 252 250 250 252 253 256 260 263 264 265 266 268 271 274 277 280 283 286 287 288 286 285 285 286 289 291 294 297 298 299 300 301 302 303 304 305 305 305 305 305 306 307 307 308 308 310 310 310 311 311 307 304 306 310 311 311 313 316 320 321 319 318 317 318 318 320 323 320 318 323 324 316 316 320 320 319 319 319 318 317 315 315 316 317 317 316 316
256 251 248 249 252 255 257 261 263 265 268 269 271 273 275 277 279 282 283 284 284 284 284 286 288 291 294 297 298 299 301 302 302 303 303 304 304 304 305 305 305 306 306 307 308 309 311 312 311 312 311 308 308 311 313 311 311 313 317 320 319 318 317 317 317 318 319 322 322 319 322 324 319 318 320 319 318 319 318 317 316 314 314 315 315 316 315 315
253 249 247 247 250 253 255 258 260 263 266 269 272 274 275 275 277 279 281 282 283 284 286 289 292 294 296 298 299 301 302 302 303 303 303 304 304 304 305 305 305 306 307 308 310 312 314 313 311 311 310 308 311 315 314 312 313 315 318 320 318 317 317 317 317 318 319 322 323 321 321 322 320 320 320 319 318 318 317 316 315 313 313 314 314 315 315 315
253 251 251 251 252 254 257 260 262 265 267 270 272 274 276 277 278 279 280 282 284 286 289 292 295 297 298 299 300 301 302 302 303 304 304 304 304 304 305 305 306 307 308 310 312 313 314 312 310 311 309 308 312 315 314 314 315 316 319 319 317 317 318 318 317 318 320 322 323 323 321 321 320 321 321 320 318 318 317 316 314 312 312 313 314 315 315 315
256 255 255 256 256 257 260 263 266 268 269 271 273 276 277 278 279 279 281 284 287 289 292 294 297 298 300 301 301 302 302 303 303 304 304 304 304 304 305 306 307 309 311 313 314 313 312 310 310 312 310 309 312 315 315 315 316 318 320 319 318 318 319 319 319 319 321 323 323 323 322 321 321 321 321 319 318 317 316 315 314 312 313 314 315 316 316 316
258 259 260 260 260 261 263 266 268 270 272 274 276 278 279 280 281 282 284 287 289 292 294 297 298 300 301 302 302 303 303 303 303 302 302 303 304 305 306 307 309 311 313 314 313 312 312 311 311 313 311 310 313 316 315 316 317 319 320 319 318 318 319 321 320 320 320 322 322 322 321 321 319 319 319 318 317 316 316 315 314 314 314 315 316 316 316 315
261 262 264 264 265 267 270 272 274 275 276 277 278 279 281 282 284 286 288 290 292 294 296 298 300 301 302 303 303 303 303 302 302 302 302 304 305 306 307 309 311 312 312 312 311 310 312 312 312 313 312 311 313 315 315 316 318 319 319 318 318 319 321 322 321 319 319 321 321 320 319 319 318 316 317 317 317 317 316 315 315 314 315 315 315 315 315 315
266 268 270 272 274 277 279 280 280 280 280 281 282 283 284 286 288 290 292 293 295 296 299 300 302 303 303 303 303 302 302 302 302 303 304 305 306 307 309 310 311 311 310 310 310 310 312 312 312 313 313 312 313 315 314 315 317 318 319 319 318 320 322 322 321 318 318 319 320 319 318 318 316 316 316 317 317 317 316 315 314 314 315 315 315 315 315 314
Height
10703 10706 10708 10710 10714 10718 10722 10726 10730 10732 10735 10738 10740 10744 10746 10749 10751 10754 10756 10759 10761 10764 10766 10767 10769 10770 10770 10771 10772 10773 10774 10774 10775 10775 10775 10775 10775 10775 10775 10774 10774 10773 10772 10771 10770 10769 10767 10766 10765 10764 10762 10761 10760 10758 10757 10755 10753 10750 10748 10746 10743 10741 10739 10736 10734 10731 10728 10725 10723 10720 10718 10715 10713 10711 10708 10705 10702 10699 10697 10694 10691 10688 10684 10681 10678 10675 10671 10668
10699 10701 10704 10707 10710 10714 10718 10723 10726 10728 10732 10735 10738 10742 10745 10747 10749 10752 10754 10757 10759 10762 10763 10765 10767 10768 10768 10769 10770 10771 10772 10772 10773 10773 10773 10773 10773 10772 10772 10771 10771 10770 10769 10768 10767 10765 10764 10763 10761 10760 10758 10757 10755 10754 10752 10750 10748 10745 10743 10741 10738 10736 10733 10731 10728 10726 10723 10721 10718 10715 10713 10710 10708 10705 10703 10700 10697 10694 10692 10688 10685 10682 10679 10675 10672 10668 10665 10661
10695 10697 10700 10703 10707 10712 10716 10720 10722 10725 10729 10733 10737 10740 10743 10745 10747 10750 10752 10755 10757 10760 10762 10763 10765 10766 10767 10767 10768 10769 10769 10770 10770 10770 10770 10770 10769 10769 10769 10768 10767 10766 10765 10764 10763 10762 10761 10759 10757 10756 10754 10752 10751 10749 10747 10745 10743 10741 10738 10736 10733 10731 10728 10725 10723 10721 10718 10716 10714 10711 10709 10706 10702 10699 10697 10695 10692 10689 10686 10683 10680 10677 10673 10669 10665 10662 10658 10654
10692 10693 10696 10700 10704 10709 10713 10716 10719 10724 10729 10733 10736 10739 10742 10744 10745 10748 10751 10753 10755 10758 10760 10761 10763 10764 10765 10766 10766 10766 10767 10767 10768 10767 10767 10766 10766 10765 10765 10765 10764 10763 10762 10760 10759 10758 10757 10755 10754 10752 10750 10748 10746 10745 10743 10741 10738 10736 10733 10731 10728 10726 10723 10720 10718 10716 10714 10712 10709 10707 10704 10701 10698 10695 10692 10689 10686 10683 10681 10677 10674 10671 10667 10663 10658 10654 10651 10647
10690 10691 10694 10697 10702 10706 10710 10714 10718 10724 10728 10732 10735 10738 10740 10742 10744 10747 10749 10752 10754 10756 10758 10760 10761 10762 10763 10764 10764 10764 10764 10764 10764 10764 10764 10763 10763 10762 10761 10761 10760 10759 10758 10757 10756 10754 10753 10751 10750 10748 10746 10744 10742 10740 10738 10736 10733 10731 10728 10726 10724 10721 10719 10716 10714 10712 10710 10707 10705 10702 10700 10697 10694 10690 10687 10684 10681 10678 10675 10672 10668 10664 10660 10656 10652 10648 10644 10640
10689 10690 10692 10696 10700 10705 10709 10713 10718 10723 10726 10730 10733 10736 10739 10741 10743 10746 10748 10751 10753 10755 10756 10758 10759 10760 10761 10761 10761 10761 10761 10761 10761 10761 10761 10760 10760 10759 10758 10757 10756 10755 10754 10753 10752 10750 10749 10747 10746 10744 10742 10740 10738 10736 10733 10731 10729 10726 10724 10722 10719 10717 10715 10713 10710 10708 10706 10703 10700 10697 10695 10693 10690 10685 10682 10679 10676 10672 10669 10665 10661 10657 10654 10649 10645 10641 10637 10633
10689 10690 10692 10695 10699 10704 10708 10713 10718 10722 10725 10728 10732 10736 10738 10740 10742 10745 10747 10749 10751 10753 10754 10756 10757 10758 10758 10758 10758 10758 10758 10758 10758 10758 10758 10757 10757 10756 10755 10754 10753 10752 10751 10749 10748 10746 10745 10743 10742 10740 10738 10736 10734 10731 10729 10727 10724 10722 10720 10717 10715 10713 10711 10709 10706 10704 10701 10698 10695 10692 10689 10688 10685 10680 10676 10674 10670 10667 10663 10659 10655 10651 10647 10643 10638 10634 10630 10625
10690 10691 10693 10695 10699 10704 10709 10714 10718 10721 10725 10729 10733 10735 10737 10739 10742 10744 10746 10748 10749 10751 10752 10753 10754 10755 10755 10756 10756 10756 10756 10756 10755 10755 10755 10754 10753 10752 10752 10751 10750 10748 10747 10746 10744 10743 10741 10740 10738 10736 10734 10731 10729 10727 10725 10723 10720 10718 10716 10713 10711 10709 10707 10705 10702 10699 10697 10694 10690 10686 10683 10682 10680 10674 10670 10667 10664 10661 10657 10653 10649 10644 10640 10636 10631 10627 10622 10617
10692 10694 10695 10698 10702 10706 10711 10715 10718 10722 10725 10729 10732 10734 10736 10739 10741 10743 10745 10746 10747 10749 10750 10751 10752 10753 10753 10753 10753 10753 10753 10753 10752 10752 10751 10751 10750 10749 10748 10747 10746 10745 10743 10742 10740 10739 10737 10736 10734 10732 10730 10728 10726 10723 10721 10718 10716 10713 10711 10709 10707 10704 10702 10700 10697 10695 10692 10689 10685 10681 10677 10676 10674 10668 10663 10660 10657 10654 10650 10646 10642 10637 10633 10628 10623 10619 10614 10610
10696 10697 10699 10701 10705 10708 10712 10716 10719 10723 10726 10728 10731 10733 10736 10738 10740 10742 10743 10744 10745 10746 10748 10749 10750 10750 10750 10750 10751 10751 10750 10750 10750 10749 10748 10747 10747 10746 10745 10743 10742 10741 10739 10738 10736 10735 10733 10732 10730 10728 10726 10724 10722 10719 10717 10714 10712 10709 10707 10705 10703 10700 10697 10695 10692 10689 10686 10683 10679 10675 10671 10671 10669 10663 10657 10654 10651 10647 10644 10640 10634 10629 10625 10620 10616 10611 10607 10602
10699 10701 10702 10705 10707 10710 10714 10717 10720 10723 10725 10728 10730 10732 10735 10737 10738 10740 10741 10742 10743 10744 10746 10746 10747 10747 10748 10748 10748 10748 10748 10747 10747 10746 10745 10745 10744 10743 10741 10740 10739 10737 10736 10734 10733 10731 10730 10728 10726 10724 10722 10720 10718 10715 10713 10710 10708 10705 10703 10701 10698 10696 10692 10689 10686 10683 10680 10677 10674 10669 10664 10665 10665 10658 10652 10647 10644 10641 10637 10632 10627 10622 10617 10613 10608 10604 10600 10595
10702 10704 10705 10707 10710 10713 10715 10718 10721 10723 10725 10728 10730 10732 10733 10735 10737 10738 10739 10740 10742 10743 10743 10744 10744 10745 10745 10745 10745 10745 10745 10744 10744 10743 10743 10742 10741 10740 10738 10737 10736 10734 10733 10731 10730 10728 10726 10724 10722 10720 10718 10716 10714 10711 10709 10706 10704 10701 10699 10697 10694 10692 10688 10684 10681 10677 10674 10671 10668 10664 10657 10657 10660 10653 10646 10641 10637 10633 10630 10625 10619 10614 10610 10606 10601 10596 10592 10587
10705 10706 10708 10710 10712 10714 10716 10719 10721 10724 10726 10728 10729 10731 10733 10734 10736 10737 10738 10739 10740 10741 10741 10742 10742 10742 10742 10743 10743 10742 10742 10742 10741 10740 10740 10739 10738 10737 10736 10735 10733 10732 10730 10728 10727 10725 10723 10721 10719 10717 10715 10712 10710 10707 10705 10702 10700 10698 10695 10693 10689 10687 10684 10680 10676 10672 10669 10666 10663 10660 10651 10649 10653 10649 10641 10635 10630 10626 10623 10618 10612 10607 10603 10598 10594 10588 10583 10579
10706 10708 10710 10712 10714 10715 10717 10719 10721 10723 10725 10727 10728 10730 10732 10733 10734 10735 10736 10737 10738 10739 10739 10740 10740 10740 10740 10740 10740 10739 10739 10739 10738 10738 10737 10736 10735 10734 10733 10732 10730 10729 10727 10725 10723 10722 10720 10718 10716 10713 10711 10709 10706 10703 10701 10698 10696 10693 10691 10688 10685 10682 10680 10676 10672 10668 10665 10661 10658 10656 10647 10642 10645 10643 10637 10629 10622 10619 10615 10611 10605 10600 10595 10591 10585 10580 10574 10570
10708 10709 10711 10713 10714 10716 10718 10719 10721 10723 10725 10726 10728 10729 10730 10731 10732 10733 10735 10736 10736 10737 10737 10737 10737 10737 10737 10737 10737 10737 10737 10736 10736 10735 10734 10733 10732 10731 10730 10729 10727 10725 10724 10722 10720 10718 10716 10714 10712 10710 10708 10705 10703 10700 10697 10695 10692 10690 10687 10684 10680 10677 10675 10672 10668 10665 10661 10657 10653 10651 10643 10636 10636 10635 10631 10625 10616 10612 10608 10603 10598 10592 10588 10583 10577 10571 10566 10561
10709 10710 10711 10713 10715 10716 10718 10719 10721 10722 10724 10725 10727 10728 10728 10729 10731 10732 10733 10734 10735 10735 10735 10735 10735 10735 10735 10735 10735 10734 10734 10733 10733 10732 10731 10731 10730 10728 10727 10726 10724 10722 10721 10719 10717 10715 10713 10711 10709 10707 10704 10702 10699 10696 10693 10691 10688 10685 10682 10679 10676 10673 10671 10667 10664 10661 10657 10652 10648 10645 10638 10631 10629 10627 10624 10619 10611 10605 10600 10595 10590 10585 10580 10574 10568 10563 10557 10552
10710 10711 10711 10713 10714 10716 10717 10719 10720 10721 10723 10724 10725 10726 10727 10728 10729 10730 10731 10732 10733 10733 10733 10733 10733 10733 10733 10733 10732 10732 10731 10730 10730 10729 10728 10727 10726 10725 10724 10723 10721 10719 10718 10716 10714 10712 10710 10708 10705 10703 10700 10698 10695 10692 10690 10687 10684 10681 10677 10675 10671 10668 10667 10663 10659 10655 10651 10646 10643 10640 10633 10625 10622 10619 10616 10611 10604 10598 10593 10588 10583 10577 10572 10566 10560 10555 10549 10544
10710 10710 10711 10712 10714 10715 10716 10718 10719 10721 10722 10723 10724 10725 10726 10727 10728 10729 10730 10730 10730 10730 10731 10731 10731 10731 10731 10730 10730 10729 10728 10728 10727 10726 10725 10724 10723 10722 10720 10719 10717 10716 10714 10712 10710 10708 10706 10704 10701 10699 10696 10694 10691 10689 10686 10683 10680 10677 10674 10671 10667 10663 10661 10659 10654 10650 10646 10640 10635 10633 10627 10621 10616 10611 10607 10602 10596 10591 10585 10580 10575 10570 10564 10558 10553 10547 10541 10536
10709 10710 10711 10712 10713 10714 10715 10716 10718 10719 10721 10722 10723 10724 10724 10725 10726 10727 10727 10728 10728 10729 10729 10729 10728 10728 10728 10728 10727 10726 10726 10725 10724 10723 10722 10721 10720 10718 10717 10715 10714 10712 10711 10709 10707 10705 10702 10700 10697 10695 10693 10690 10687 10685 10682 10679 10676 10673 10669 10667 10663 10658 10654 10652 10649 10645 10642 10635 10628 10625 10620 10615 10611 10605 10600 10594 10588 10583 10578 10573 10568 10563 10557 10551 10546 10540 10533 10529
10709 10710 10711 10712 10713 10713 10714 10715 10717 10718 10719 10721 10721 10722 10722 10723 10724 10725 10726 10726 10726 10727 10727 10726 10726 10726 10725 10725 10724 10723 10722 10722 10721 10720 10719 10718 10717 10716 10714 10713 10711 10710 10708 10706 10704 10701 10699 10696 10694 10691 10689 10686 10683 10680 10678 10675 10672 10668 10665 10661 10658 10654 10648 10644 10642 10638 10635 10631 10623 10618 10611 10606 10605 10600 10594 10588 10581 10576 10571 10567 10562 10556 10550 10545 10539 10533 10527 10522
10709 10710 10711 10711 10712 10713 10713 10714 10715 10716 10717 10718 10719 10720 10721 10721 10722 10723 10724 10724 10724 10724 10724 10724 10723 10723 10722 10722 10721 10720 10719 10718 10718 10717 10716 10714 10713 10712 10711 10710 10708 10706 10705 10703 10700 10698 10696 10693 10690 10687 10685 10682 10679 10676 10672 10670 10667 10664 10660 10656 10652 10649 10644 10638 10635 10631 10629 10626 10619 10612 10604 10596 10595 10593 10586 10581 10575 10569 10564 10560 10555 10549 10543 10538 10532 10526 10521 10516
10709 10709 10709 10710 10711 10712 10712 10713 10713 10714 10715 10716 10717 10718 10719 10720 10721 10721 10721 10722 10722 10721 10721 10721 10721 10720 10719 10719 10718 10717 10716 10716 10715 10714 10712 10711 10710 10709 10708 10706 10704 10703 10701 10699 10696 10694 10691 10689 10686 10683 10680 10677 10674 10671 10667 10664 10662 10659 10655 10651 10647 10643 10640 10634 10628 10624 10621 10620 10616 10609 10600 10589 10585 10584 10579 10573 10569 10562 10557 10553 10548 10543 10536 10531 10526 10521 10516 10512
10709 10709 10709 10709 10709 10710 10711 10711 10712 10712 10714 10714 10715 10716 10717 10718 10719 10719 10719 10719 10718 10718 10718 10718 10718 10717 10716 10715 10715 10714 10714 10713 10712 10711 10709 10708 10707 10705 10704 10702 10701 10699 10696 10694 10692 10690 10687 10684 10681 10678 10675 10672 10669 10666 10662 10658 10656 10654 10650 10646 10642 10638 10635 10631 10625 10618 10612 10610 10610 10607 10599 10586 10577 10577 10573 10566 10562 10556 10550 10546 10541 10536 10530 10525 10521 10517 10513 10509
10707 10707 10708 10708 10708 10708 10709 10709 10710 10710 10711 10712 10713 10714 10715 10715 10716 10716 10716 10716 10716 10715 10715 10715 10715 10714 10713 10713 10712 10712 10711 10710 10709 10708 10706 10705 10703 10702 10700 10698 10696 10694 10692 10690 10687 10684 10682 10679 10676 10673 10670 10667 10665 10661 10658 10654 10650 10647 10645 10641 10637 10632 10628 10625 10621 10616 10608 10601 10599 10598 10597 10584 10570 10569 10568 10560 10556 10550 10543 10539 10534 10529 10525 10519 10516 10512 10509 10505
10705 10705 10705 10706 10706 10706 10707 10707 10707 10708 10708 10709 10710 10711 10712 10713 10713 10714 10714 10713 10713 10713 10712 10712 10712 10711 10711 10710 10709 10709 10708 10707 10706 10704 10703 10702 10700 10698 10696 10694 10692 10690 10688 10685 10682 10679 10677 10674 10671 10668 10665 10662 10659 10656 10653 10650 10645 10641 10638 10635 10631 10627 10622 10618 10614 10610 10604 10597 10590 10587 10588 10583 10567 10561 10561 10555 10550 10545 10537 10531 10527 10523 10520 10515 10511 10508 10504 10501
10703 10703 10703 10703 10703 10704 10704 10704 10704 10705 10705 10706 10707 10708 10709 10710 10711 10711 10711 10710 10710 10709 10709 10709 10709 10709 10708 10707 10706 10706 10705 10703 10702 10701 10699 10698 10696 10695 10693 10690 10688 10686 10684 10681 10678 10675 10672 10669 10666 10663 10660 10657 10654 10651 10647 10644 10641 10636 10632 10628 10625 10621 10617 10613 10607 10603 10598 10592 10585 10577 10576 10575 10563 10553 10553 10548 10542 10538 10530 10525 10522 10519 10515 10511 10507 10503 10499 10496
10700 10700 10700 10700 10700 10700 10700 10701 10701 10702 10702 10703 10703 10704 10705 10706 10708 10708 10707 10706 10706 10706 10706 10707 10706 10706 10706 10704 10703 10703 10702 10700 10699 10697 10696 10694 10692 10690 10688 10686 10684 10682 10679 10677 10674 10671 10668 10665 10661 10658 10655 10652 10648 10645 10642 10638 10636 10632 10627 10623 10620 10616 10611 10607 10602 10597 10591 10584 10578 10570 10565 10564 10556 10547 10547 10542 10535 10530 10523 10519 10518 10515 10511 10507 10503 10499 10495 10491
10697 10696 10696 10696 10696 10696 10696 10696 10697 10698 10699 10699 10700 10701 10701 10703 10704 10703 10703 10703 10702 10703 10704 10704 10704 10703 10703 10701 10700 10700 10698 10697 10696 10694 10692 10691 10688 10686 10684 10682 10680 10678 10675 10673 10670 10666 10663 10660 10656 10653 10650 10646 10643 10639 10636 10632 10629 10626 10622 10618 10614 10611 10606 10602 10597 10591 10585 10578 10571 10563 10556 10554 10547 10539 10540 10538 10530 10524 10518 10515 10514 10510 10506 10503 10499 10495 10491 10487
10694 10693 10692 10691 10691 10691 10692 10692 10693 10694 10695 10696 10696 10697 10698 10699 10700 10700 10700 10700 10699 10701 10702 10701 10701 10700 10700 10698 10697 10696 10695 10694 10693 10690 10689 10687 10684 10682 10680 10678 10676 10673 10671 10669 10665 10662 10658 10654 10651 10647 10644 10641 10637 10634 10630 10626 10623 10620 10616 10613 10608 10605 10601 10596 10591 10585 10580 10573 10565 10557 10548 10544 10539 10534 10535 10533 10527 10520 10514 10511 10508 10505 10502 10498 10495 10491 10487 10483
10690 10690 10689 10688 10687 10687 10688 10688 10689 10690 10691 10692 10693 10694 10695 10696 10696 10697 10697 10696 10697 10699 10699 10698 10698 10697 10696 10695 10694 10692 10691 10690 10689 10687 10685 10682 10680 10678 10676 10674 10671 10669 10666 10663 10660 10657 10653 10649 10645 10642 10638 10635 10631 10627 10624 10620 10617 10613 10610 10606 10603 10599 10595 10591 10585 10579 10575 10568 10560 10551 10542 10534 10530 10530 10532 10528 10522 10517 10512 10508 10504 10500 10496 10493 10490 10486 10482 10478
10687 10686 10685 10684 10684 10684 10684 10684 10685 10686 10688 10689 10690 10691 10692 10693 10693 10693 10693 10694 10695 10696 10696 10696 10695 10694 10693 10692 10690 10689 10688 10686 10685 10683 10681 10678 10676 10673 10671 10669 10666 10665 10662 10658 10655 10652 10647 10643 10640 10636 10632 10629 10625 10621 10618 10614 10610 10606 10602 10599 10596 10593 10590 10586 10580 10575 10570 10564 10555 10546 10537 10527 10522 10525 10528 10523 10517 10514 10509 10505 10500 10496 10491 10487 10484 10481 10476 10472
10683 10682 10682 10681 10681 10680 10681 10681 10682 10683 10684 10686 10687 10688 10689 10690 10690 10690 10691 10693 10693 10692 10693 10693 10692 10691 10690 10688 10686 10685 10684 10683 10680 10679 10677 10674 10672 10669 10666 10664 10662 10660 10658 10654 10650 10647 10643 10637 10633 10630 10626 10622 10619 10615 10612 10608 10604 10600 10596 10591 10588 10586 10584 10582 10577 10571 10566 10560 10551 10540 10530 10523 10518 10521 10524 10518 10512 10510 10505 10500 10496 10492 10488 10483 10479 10475 10471 10467
10679 10679 10678 10678 10678 10678 10678 10678 10679 10680 10681 10683 10684 10685 10686 10687 10687 10688 10690 10691 10690 10689 10689 10690 10689 10687 10686 10684 10682 10681 10681 10679 10676 10674 10672 10670 10667 10664 10661 10659 10656 10655 10653 10650 10647 10644 10639 10633 10627 10624 10620 10615 10612 10609 10605 10602 10599 10595 10590 10585 10580 10576 10575 10575 10572 10568 10563 10555 10546 10534 10524 10519 10516 10518 10519 10512 10507 10504 10499 10494 10490 10486 10483 10479 10474 10470 10466 10462
10676 10675 10675 10675 10675 10675 10675 10676 10676 10677 10679 10680 10681 10682 10683 10683 10685 10687 10687 10688 10687 10686 10686 10686 10685 10683 10682 10680 10679 10678 10677 10676 10672 10670 10668 10666 10663 10660 10656 10653 10651 10649 10646 10644 10642 10639 10636 10630 10624 10619 10614 10610 10606 10602 10599 10595 10593 10589 10583 10578 10573 10568 10564 10564 10563 10560 10556 10550 10540 10528 10517 10513 10514 10516 10514 10507 10502 10499 10494 10488 10483 10480 10477 10474 10469 10465 10461 10456
10673 10672 10672 10672 10673 10673 10673 10674 10674 10675 10676 10677 10678 10679 10680 10681 10683 10684 10684 10684 10684 10683 10683 10682 10681 10680 10678 10677 10676 10674 10674 10672 10669 10666 10664 10661 10659 10656 10652 10649 10647 10643 10640 10638 10636 10634 10631 10626 10620 10614 10609 10605 10601 10597 10592 10588 10586 10583 10578 10572 10567 10563 10558 10556 10555 10549 10545 10542 10535 10525 10512 10505 10509 10512 10509 10503 10496 10492 10488 10482 10476 10472 10470 10468 10463 10459 10453 10448
10670 10670 10670 10670 10670 10671 10671 10672 10672 10673 10674 10675 10675 10676 10678 10679 10679 10680 10681 10681 10680 10680 10679 10678 10677 10677 10675 10673 10672 10670 10669 10668 10666 10663 10660 10657 10654 10651 10647 10645 10642 10638 10635 10632 10629 10627 10625 10622 10616 10609 10604 10599 10595 10592 10586 10581 10578 10575 10571 10566 10561 10559 10554 10550 10549 10543 10538 10535 10531 10523 10508 10500 10505 10506 10502 10499 10492 10488 10483 10477 10471 10466 10463 10461 10456 10451 10445 10440
10667 10667 10667 10667 10668 10669 10669 10670 10670 10671 10671 10672 10673 10674 10676 10676 10676 10677 10677 10677 10677 10676 10676 10675 10674 10674 10672 10670 10668 10666 10665 10663 10661 10659 10656 10653 10649 10646 10643 10640 10637 10633 10630 10627 10624 10621 10619 10617 10612 10604 10598 10593 10589 10585 10580 10574 10570 10567 10563 10559 10555 10554 10550 10545 10541 10537 10534 10532 10528 10522 10504 10494 10502 10503 10497 10493 10487 10483 10479 10471 10465 10459 10455 10453 10448 10442 10437 10431
10664 10665 10665 10665 10666 10666 10667 10667 10668 10669 10669 10670 10671 10672 10673 10674 10674 10674 10674 10674 10674 10673 10673 10672 10671 10671 10669 10667 10665 10662 10661 10659 10656 10654 10652 10649 10645 10641 10638 10635 10632 10628 10625 10621 10618 10615 10612 10611 10608 10599 10592 10587 10583 10579 10574 10567 10564 10560 10556 10552 10549 10547 10545 10540 10535 10531 10530 10528 10525 10521 10502 10487 10496 10500 10493 10489 10482 10478 10474 10465 10458 10453 10447 10445 10442 10436 10430 10424
10662 10662 10663 10663 10664 10664 10665 10665 10666 10667 10668 10668 10669 10669 10670 10670 10671 10671 10671 10671 10671 10670 10669 10669 10669 10668 10665 10663 10662 10659 10657 10654 10651 10649 10647 10644 10640 10637 10634 10630 10627 10623 10619 10615 10612 10609 10606 10604 10603 10596 10587 10582 10577 10572 10567 10562 10559 10555 10551 10547 10543 10541 10539 10535 10530 10525 10525 10523 10520 10520 10502 10481 10488 10494 10488 10484 10479 10474 10471 10463 10454 10448 10442 10439 10435 10430 10424 10418
10660 10660 10661 10661 10662 10662 10663 10664 10664 10665 10665 10666 10666 10666 10667 10667 10668 10668 10668 10668 10667 10667 10666 10665 10665 10664 10661 10659 10657 10656 10653 10650 10646 10644 10641 10638 10635 10632 10629 10625 10622 10618 10614 10610 10606 10603 10600 10598 10596 10591 10582 10576 10571 10565 10560 10556 10554 10550 10546 10542 10538 10537 10535 10531 10527 10520 10518 10516 10513 10516 10503 10477 10477 10486 10480 10476 10474 10468 10464 10459 10451 10443 10436 10432 10427 10420 10415 10410
10658 10658 10659 10659 10660 10660 10661 10662 10662 10662 10663 10663 10664 10664 10664 10665 10665 10666 10666 10665 10665 10664 10663 10662 10660 10659 10657 10655 10653 10651 10649 10646 10642 10639 10636 10633 10629 10627 10624 10620 10617 10613 10609 10605 10600 10597 10595 10592 10590 10585 10577 10571 10565 10558 10554 10551 10548 10544 10541 10537 10534 10532 10530 10526 10524 10517 10513 10510 10506 10510 10503 10478 10470 10476 10472 10468 10466 10460 10454 10450 10445 10437 10429 10425 10420 10412 10406 10401
10656 10657 10657 10657 10658 10659 10659 10660 10660 10660 10660 10661 10661 10661 10662 10662 10663 10663 10663 10662 10662 10660 10659 10658 10656 10654 10653 10651 10648 10646 10645 10642 10639 10634 10631 10628 10624 10622 10619 10614 10611 10607 10603 10600 10595 10590 10588 10586 10584 10579 10572 10566 10559 10552 10548 10546 10543 10539 10535 10532 10530 10528 10524 10520 10519 10515 10510 10506 10501 10503 10502 10482 10467 10467 10465 10461 10458 10452 10446 10441 10436 10431 10423 10417 10412 10405 10398 10392
10655 10655 10655 10656 10656 10657 10657 10657 10658 10658 10659 10659 10659 10660 10660 10660 10660 10660 10659 10658 10658 10656 10654 10653 10651 10650 10648 10646 10644 10641 10640 10638 10635 10630 10626 10623 10620 10616 10613 10608 10605 10601 10597 10594 10589 10585 10582 10579 10576 10574 10569 10561 10552 10545 10542 10540 10537 10533 10530 10528 10525 10523 10519 10514 10512 10510 10507 10501 10495 10495 10497 10486 10469 10462 10459 10455 10451 10444 10437 10431 10425 10421 10416 10411 10404 10395 10388 10382
10653 10654 10654 10654 10654 10655 10655 10655 10656 10656 10657 10657 10657 10657 10658 10658 10657 10656 10655 10654 10653 10652 10650 10649 10648 10646 10644 10642 10640 10637 10635 10633 10631 10626 10621 10618 10615 10611 10607 10602 10598 10595 10591 10588 10584 10580 10576 10572 10568 10567 10566 10561 10551 10542 10538 10535 10531 10527 10525 10524 10521 10517 10514 10510 10507 10504 10502 10498 10489 10485 10489 10484 10468 10458 10455 10450 10444 10438 10430 10422 10414 10407 10404 10401 10396 10388 10380 10374
10652 10652 10652 10653 10653 10653 10653 10653 10654 10654 10654 10654 10655 10655 10655 10654 10653 10652 10651 10650 10649 10648 10647 10645 10644 10642 10640 10637 10635 10632 10629 10627 10625 10621 10616 10613 10609 10605 10601 10597 10593 10589 10585 10582 10579 10575 10571 10565 10560 10558 10557 10554 10550 10545 10540 10535 10529 10525 10522 10520 10517 10512 10508 10505 10502 10499 10497 10495 10486 10476 10479 10481 10467 10454 10451 10445 10438 10433 10426 10418 10409 10399 10393 10389 10384 10378 10371 10364
10650 10651 10651 10651 10651 10651 10652 10652 10652 10652 10652 10652 10651 10651 10652 10651 10649 10648 10648 10647 10646 10645 10643 10642 10640 10638 10635 10633 10631 10627 10624 10621 10618 10615 10611 10607 10604 10599 10595 10591 10587 10583 10579 10576 10573 10570 10567 10561 10555 10552 10547 10543 10542 10540 10538 10533 10527 10523 10520 10517 10513 10508 10503 10498 10495 10493 10489 10490 10485 10471 10466 10471 10465 10453 10447 10440 10433 10428 10421 10413 10404 10394 10386 10380 10374 10368 10360 10352
10649 10649 10649 10650 10650 10650 10650 10650 10650 10650 10649 10649 10649 10648 10648 10648 10647 10645 10644 10644 10642 10641 10640 10638 10636 10634 10631 10629 10626 10622 10619 10615 10612 10608 10605 10601 10598 10594 10590 10585 10581 10578 10574 10571 10568 10565 10563 10557 10551 10547 10541 10535 10535 10534 10531 10528 10524 10521 10518 10514 10508 10503 10499 10493 10488 10485 10482 10480 10480 10470 10458 10456 10455 10449 10441 10431 10424 10420 10413 10405 10396 10386 10379 10373 10366 10360 10352 10342
10647 10648 10648 10648 10649 10648 10648 10648 10648 10648 10647 10647 10646 10646 10645 10645 10644 10643 10641 10640 10639 10637 10636 10633 10631 10629 10626 10624 10621 10618 10614 10610 10606 10602 10599 10595 10591 10588 10584 10579 10576 10573 10569 10566 10563 10560 10558 10553 10547 10543 10536 10529 10530 10529 10525 10522 10519 10516 10514 10510 10504 10498 10493 10487 10480 10476 10473 10469 10468 10465 10455 10445 10440 10438 10433 10421 10411 10406 10400 10393 10384 10375 10368 10363 10356 10349 10342 10332
10646 10647 10647 10647 10647 10647 10647 10646 10646 10646 10645 10644 10644 10643 10643 10642 10641 10640 10638 10637 10635 10633 10631 10629 10627 10624 10621 10618 10615 10612 10609 10605 10601 10596 10593 10589 10585 10582 10579 10574 10571 10568 10565 10562 10558 10555 10553 10548 10544 10540 10533 10525 10525 10524 10520 10516 10513 10510 10508 10503 10498 10492 10486 10480 10473 10466 10463 10460 10455 10452 10448 10438 10427 10422 10420 10412 10401 10393 10387 10380 10372 10363 10355 10348 10341 10333 10326 10318
10645 10645 10646 10646 10645 10645 10645 10644 10644 10643 10643 10642 10641 10640 10640 10639 10638 10637 10635 10634 10632 10629 10627 10624 10622 10619 10616 10613 10610 10606 10603 10600 10596 10592 10588 10584 10580 10577 10574 10570 10567 10564 10560 10557 10554 10550 10548 10545 10541 10538 10531 10522 10520 10518 10514 10511 10508 10505 10501 10496 10490 10486 10480 10473 10466 10458 10454 10452 10446 10439 10435 10431 10421 10413 10409 10402 10391 10381 10373 10366 10359 10350 10342 10334 10326 10319 10311 10304
10644 10644 10644 10644 10643 10643 10643 10642 10642 10641 10640 10640 10639 10638 10637 10636 10634 10633 10631 10629 10628 10625 10622 10619 10616 10613 10610 10607 10604 10601 10597 10594 10591 10587 10583 10580 10576 10572 10569 10566 10563 10560 10556 10553 10550 10546 10544 10541 10537 10535 10529 10521 10517 10513 10508 10505 10503 10500 10496 10490 10484 10479 10474 10467 10458 10448 10443 10443 10439 10432 10425 10421 10415 10408 10404 10398 10386 10371 10358 10347 10339 10334 10329 10321 10313 10305 10297 10289
10643 10643 10643 10643 10642 10641 10641 10640 10639 10639 10638 10637 10636 10635 10634 10632 10631 10629 10628 10625 10623 10621 10617 10614 10611 10608 10605 10602 10599 10595 10592 10588 10585 10581 10578 10575 10571 10568 10565 10562 10559 10556 10553 10549 10546 10543 10540 10538 10534 10531 10527 10519 10514 10510 10504 10499 10498 10495 10490 10484 10478 10473 10468 10462 10451 10439 10431 10429 10428 10423 10417 10410 10403 10397 10393 10390 10384 10370 10354 10338 10326 10319 10314 10308 10300 10291 10282 10275